DW1850 Weather Reports


time (UTC)temp
C
wind
direction
speed
KPH
gust
KPH
rain 1hr
cm
rain 24hr
cm
rain mn
cm
humidity
%
barometer
mb
20260505005740 25 172 6.4 29.0 0.00 0.00 0.00 67 1005.2
20260505002739 26 185 4.8 29.0 0.00 0.00 0.00 63 1005.1
20260504235738 26 172 6.4 29.0 0.00 0.00 0.00 62 1005.1
20260504225736 27 187 4.8 33.8 0.00 0.00 0.00 60 1005.8
20260504222736 28 187 14.5 43.5 0.00 0.00 0.00 58 1005.8
20260504215735 27 170 1.6 35.4 0.00 0.00 0.00 59 1006.0
20260504212734 27 136 6.4 29.0 0.00 0.00 0.00 60 1006.4
20260504205734 27 185 0.0 27.4 0.00 0.00 0.00 61 1007.0
20260504195732 27 203 6.4 25.7 0.00 0.00 0.00 60 1008.1
20260504192731 27 190 4.8 22.5 0.00 0.00 0.00 60 1008.5
20260504185730 26 172 16.1 27.4 0.00 0.00 0.00 64 1009.1
20260504182729 25 211 4.8 25.7 0.00 0.00 0.00 67 1009.4
20260504175729 24 182 6.4 25.7 0.00 0.00 0.00 68 1009.8
20260504045739 18 165 0.0 16.1 0.00 0.00 0.00 65 1014.2
20260504042738 19 158 0.0 12.9 0.00 0.00 0.00 60 1014.4
20260504035737 19 140 0.0 0.0 0.00 0.00 0.00 56 1014.5
20260504032736 18 138 0.0 0.0 0.00 0.00 0.00 56 1014.2
20260504022735 20 138 0.0 0.0 0.00 0.00 0.00 53 1013.9
20260504015734 21 138 0.0 0.0 0.00 0.00 0.00 51 1014.0
20260504012733 22 138 0.0 8.0 0.00 0.00 0.00 47 1013.4